Location: Coleto Creek Park and Reservoir
(28.7196°N, 97.1740°W)
Time: 11:16:30
(UTC-06:00)

Hubble Space Telescope - Visible Passes

Search period start: 13 February 2016 00:00
Search period end: 23 February 2016 00:00
Orbit: 540 x 543 km, 28.5° (Epoch: 12 February)

Date Brightness Start Highest point End Pass type
(mag) Time Alt. Az. Time Alt. Az. Time Alt. Az.
13 Feb 1.2 18:43:04 10° WSW 18:47:07 52° SSE 18:51:10 10° E visible
13 Feb 2.4 20:24:09 10° W 20:26:35 34° W 20:26:35 34° W visible
14 Feb 1.7 20:14:45 10° W 20:17:46 47° W 20:17:46 47° W visible
15 Feb 1.1 20:05:20 10° W 20:08:56 65° W 20:08:56 65° W visible
16 Feb 0.6 19:55:55 10° W 20:00:05 83° S 20:00:06 83° S visible
17 Feb 0.7 19:46:30 10° W 19:50:38 77° S 19:51:18 60° ESE visible
18 Feb 0.9 19:37:05 10° W 19:41:12 68° S 19:42:33 40° ESE visible
19 Feb 1.1 19:27:39 10° W 19:31:45 59° SSW 19:33:49 27° ESE visible
20 Feb 1.4 19:18:15 10° W 19:22:16 50° SSW 19:25:10 17° SE visible
20 Feb 4.0 21:00:29 10° WSW 21:00:35 10° WSW 21:00:35 10° WSW visible
21 Feb 1.8 19:08:52 10° W 19:12:47 41° SSW 19:16:35 11° SE visible
21 Feb 3.8 20:51:45 10° SW 20:52:01 11° SW 20:52:01 11° SW visible
22 Feb 2.2 18:59:31 10° W 19:03:17 33° SSW 19:07:02 10° SE visible
